Terminal Aerodrome Forecast
Issued by NWS Charleston, WV

Current Version | Previous Version | Graphics & Text | Print | Product List | Glossary On
Versions: 1 2 3 4 5 6 7 8 9 10 11 12 13 14 15 16 17 18 19 20 21 22 23 24 25 26
000
FTUS41 KRLX 312351
TAFCRW
TAF
KCRW 312351Z 0100/0124 23006KT P6SM SCT080
     FM010400 32005KT P6SM BKN080
     FM010700 34003KT 5SM BR BKN030
     FM011100 35003KT 2SM BR OVC015
     FM011300 02004KT 6SM BR OVC025
     FM011800 02004KT P6SM VCTS OVC025CB
     FM012200 02004KT P6SM VCTS BKN035CB=

USA.gov is the U.S. government's official web portal to all federal, state and local government web resources and services.